Weather History for KAMW - April, 2014

Change the Weather History Date:

Wednesday, April 2, 2014

  Actual Average Record
Temperature  
Mean Temperature 40 °F 44 °F  
Max Temperature 50 °F 56 °F 84 °F (2012)
Min Temperature 30 °F 33 °F 21 °F (2013)
Degree Days  
Heating Degree Days 25 21  
Month to date heating degree days 58 42  
Since 1 July heating degree days 6975 6198  
Cooling Degree Days 0 0  
Month to date cooling degree days 0 0  
Year to date cooling degree days 0 0  
Moisture  
Dew Point 30 °F    
Average Humidity 68    
Maximum Humidity 85    
Minimum Humidity 50    
Precipitation  
Precipitation T in 0.08 in 0.66 in (2006)
Month to date precipitation T 0.15  
Sea Level Pressure  
Sea Level Pressure 30.02 in    
Wind  
Wind Speed 12 mph (ENE)    
Max Wind Speed 22 mph    
Max Gust Speed 30 mph    
Visibility 10 miles    
Events Rain    
T = Trace of Precipitation, MM = Missing Value Source: NWS Daily Summary

Daily Weather History Graph

Daily Weather History Graph

Search for Another Location

Airport or City:

Trip Planner

Search our weather history database for the weather conditions in past years. The results will help you decide how hot, cold, wet, or windy it might be!

Date:

Astronomy

Apr. 02, 2014 Rise Set
Actual Time 6:55 AM CDT 7:41 PM CDT
Civil Twilight 6:27 AM CDT 8:09 PM CDT
Nautical Twilight 5:53 AM CDT 8:43 PM CDT
Astronomical Twilight 5:19 AM CDT 9:17 PM CDT
Moon 8:37 AM CDT (4/2) 11:08 PM CDT (4/2)
Length of Visible Light 13h 42m
Length of Day
12h 45m
Waxing Crescent, 10% of the Moon is Illuminated
Apr 2
Waxing Crescent
Apr 7
First Quarter
Apr 15
Full
Apr 22
Last Quarter
Apr 29
New

Hourly Weather History & Observations

Time (CDT) Temp. Windchill Dew Point Humidity Pressure Visibility Wind Dir Wind Speed Gust Speed Precip Events Conditions
12:53 AM 36.0 °F 29.6 °F 25.0 °F 64% 30.11 in 10.0 mi NW 8.1 mph - N/A   Overcast
1:53 AM 34.0 °F 26.6 °F 24.1 °F 67% 30.11 in 10.0 mi NNW 9.2 mph - N/A   Mostly Cloudy
2:53 AM 34.0 °F 26.6 °F 28.0 °F 79% 30.09 in 10.0 mi NNE 9.2 mph - N/A   Clear
3:53 AM 33.1 °F 25.5 °F 27.0 °F 78% 30.09 in 10.0 mi NE 9.2 mph - N/A   Clear
4:53 AM 32.0 °F 24.8 °F 28.0 °F 85% 30.10 in 9.0 mi NE 8.1 mph - N/A   Clear
5:53 AM 30.9 °F 24.3 °F 27.0 °F 85% 30.12 in 8.0 mi ENE 6.9 mph - N/A   Clear
7:53 AM 30.9 °F 21.7 °F 27.0 °F 85% 30.12 in 7.0 mi ENE 11.5 mph - N/A   Partly Cloudy
8:53 AM 33.1 °F 23.9 °F 27.0 °F 78% 30.10 in 9.0 mi ENE 12.7 mph - N/A   Clear
9:53 AM 36.0 °F 27.5 °F 27.0 °F 70% 30.09 in 10.0 mi East 12.7 mph - N/A   Clear
10:53 AM 39.9 °F 32.9 °F 28.9 °F 65% 30.08 in 10.0 mi East 11.5 mph - N/A   Clear
11:53 AM 45.0 °F 38.2 °F 28.9 °F 53% 30.06 in 10.0 mi East 15.0 mph - N/A   Clear
12:53 PM 48.0 °F - 30.9 °F 52% 30.04 in 10.0 mi ESE 13.8 mph 21.9 mph N/A   Partly Cloudy
1:03 PM 48.9 °F - 30.9 °F 50% 30.03 in 10.0 mi ENE 12.7 mph 21.9 mph N/A   Clear
1:53 PM 48.0 °F - 30.9 °F 52% 30.01 in 10.0 mi ENE 15.0 mph - N/A   Overcast
2:53 PM 48.9 °F - 32.0 °F 52% 29.99 in 10.0 mi ENE 15.0 mph - N/A   Overcast
3:53 PM 48.9 °F - 32.0 °F 52% 29.96 in 10.0 mi East 17.3 mph - N/A   Overcast
5:53 PM 46.9 °F - 34.0 °F 61% 29.94 in 10.0 mi ENE 12.7 mph - 0.00 in Rain Light Rain
6:53 PM 48.0 °F - 33.1 °F 56% 29.93 in 10.0 mi East 16.1 mph 24.2 mph 0.00 in   Overcast
7:53 PM 46.0 °F 41.0 °F 34.0 °F 63% 29.92 in 10.0 mi ENE 10.4 mph - N/A   Overcast
8:10 PM 45.0 °F 39.7 °F 34.0 °F 65% 29.89 in 10.0 mi East 10.4 mph - N/A   Overcast
8:53 PM 46.0 °F 40.6 °F 32.0 °F 58% 29.91 in 10.0 mi East 11.5 mph - N/A   Overcast
9:53 PM 46.0 °F 40.6 °F 32.0 °F 58% 29.91 in 10.0 mi ESE 11.5 mph - N/A   Overcast
10:53 PM 44.1 °F 37.1 °F 37.0 °F 76% 29.91 in 9.0 mi ESE 15.0 mph 23.0 mph 0.00 in   Overcast
11:53 PM 43.0 °F 37.2 °F 37.0 °F 80% 29.88 in 7.0 mi East 10.4 mph 21.9 mph 0.00 in   Overcast